Location: Beneden-Haastrecht
(52.0012°N, 4.7557°E)
Time: 14:17:43
(UTC+00:00)

MOS 1 Rocket - Pass Details

Date: 24 October 2020
Orbit: 615 x 829 km, 97.4° (Epoch: 28 November)

Event Time Altitude Azimuth Distance (km) Brightness Sun altitude
Rises 18:50:31 0° 13° (NNE) 2,974 6.5 -22.6°
Reaches altitude 10° 18:52:41 10° 13° (NNE) 2,084 5.7 -22.9°
Maximum altitude 18:57:15 87° 287° (WNW) 693 3.2 -23.6°
Drops below altitude 10° 19:02:03 10° 196° (SSW) 2,195 5.9 -24.4°
Sets 19:04:23 0° 196° (SSW) 3,146 6.7 -24.7°
